This is the latest recevied weather packets stored in our database for station/object KC2GYU. If no packets are shown the sender has not sent any weather packets the latest 10 day(s).
| Time | Temp. | Humidity | Pressure | Rain* | Wind** | Luminosity | Snow |
|---|---|---|---|---|---|---|---|
| 1777833877 | 15.56° C | 46% | 1014.2 hPa | 0 mm | - | 682 W/m² | - |
| 1777833573 | 15° C | 46% | 1014.2 hPa | 0 mm | - | 688 W/m² | - |
| 1777833270 | 15° C | 41% | 1014.2 hPa | 0 mm | - | 305 W/m² | - |
| 1777832967 | 15° C | 44% | 1014.1 hPa | 0 mm | - | 642 W/m² | - |
| 1777832666 | 15° C | 44% | 1014.4 hPa | 0 mm | - | 671 W/m² | - |
| 1777832363 | 15° C | 46% | 1014.3 hPa | 0 mm | - | 610 W/m² | - |
| 1777832060 | 15° C | 44% | 1014.3 hPa | 0 mm | - | 598 W/m² | - |
| 1777831756 | 14.44° C | 44% | 1014.4 hPa | 0 mm | - | 743 W/m² | - |
| 1777831460 | 13.89° C | 47% | 1014.2 hPa | 0 mm | - | 687 W/m² | - |
| 1777831151 | 13.89° C | 46% | 1014.4 hPa | 0 mm | - | 726 W/m² | - |
| 1777830849 | 14.44° C | 44% | 1014.3 hPa | 0 mm | - | 202 W/m² | - |
| 1777830544 | 14.44° C | 42% | 1014.3 hPa | 0 mm | - | 705 W/m² | - |
| 1777830243 | 14.44° C | 45% | 1014.3 hPa | 0 mm | - | 376 W/m² | - |
| 1777829942 | 13.89° C | 43% | 1014.3 hPa | 0 mm | - | 722 W/m² | - |
| 1777829639 | 14.44° C | 44% | 1014.3 hPa | 0 mm | - | 208 W/m² | - |
| 1777829336 | 13.89° C | 42% | 1014.2 hPa | 0 mm | - | 271 W/m² | - |
| 1777829033 | 13.89° C | 43% | 1014.5 hPa | 0 mm | - | 750 W/m² | - |
| 1777828729 | 13.89° C | 45% | 1014.5 hPa | 0 mm | - | 581 W/m² | - |
| 1777828426 | 13.33° C | 45% | 1014.4 hPa | 0 mm | - | 740 W/m² | - |
| 1777828124 | 13.89° C | 48% | 1014.4 hPa | 0 mm | - | 344 W/m² | - |
| 1777827820 | 15° C | 49% | 1014.6 hPa | 0 mm | - | 887 W/m² | - |
| 1777827517 | 13.33° C | 48% | 1014.4 hPa | 0 mm | - | 796 W/m² | - |
| 1777827215 | 13.33° C | 50% | 1014.6 hPa | 0 mm | - | 310 W/m² | - |
| 1777826911 | 12.78° C | 48% | 1014.2 hPa | 0 mm | - | 281 W/m² | - |
| 1777826608 | 13.33° C | 48% | 1014.5 hPa | 0 mm | - | 459 W/m² | - |
* Rain latest hour (hover to see other rain measurements)
** Current wind speed in m/s (hover to see current wind gust speed)